| time (UTC) | temp F | wind direction | speed MPH | gust MPH | rain 1hr in | rain 24hr in | rain mn in | humidity % | barometer mb |
| 20260506155152 | 58 | 133 | 1.0 | 3.0 | 0.00 | 0.00 | 0.00 | 97 | 1016.5 |
| 20260506153254 | 59 | 55 | 2.0 | 2.0 | 0.00 | 0.00 | 0.00 | 97 | 1016.6 |
| 20260506152751 | 59 | 120 | 1.0 | 5.0 | 0.00 | 0.00 | 0.00 | 97 | 1016.2 |
| 20260506152248 | 59 | 89 | 0.0 | 3.0 | 0.00 | 0.00 | 0.00 | 97 | 1015.8 |
| 20260506151747 | 59 | 47 | 2.0 | 3.0 | 0.00 | 0.00 | 0.00 | 96 | 1016.0 |
| 20260506151243 | 59 | 128 | 1.0 | 3.0 | 0.00 | 0.00 | 0.00 | 96 | 1015.5 |
| 20260506150740 | 60 | 83 | 3.0 | 10.0 | 0.00 | 0.00 | 0.00 | 96 | 1016.0 |
| 20260506150237 | 60 | 121 | 0.0 | 2.0 | 0.00 | 0.00 | 0.00 | 96 | 1015.5 |
| 20260506145734 | 61 | 60 | 0.0 | 3.0 | 0.00 | 0.00 | 0.00 | 96 | 1015.1 |
| 20260506145230 | 61 | 96 | 1.0 | 1.0 | 0.00 | 0.00 | 0.00 | 97 | 1014.6 |
| 20260506144728 | 61 | 34 | 3.0 | 5.0 | 0.00 | 0.00 | 0.00 | 96 | 1014.4 |
| 20260506144225 | 61 | 123 | 1.0 | 2.0 | 0.00 | 0.00 | 0.00 | 97 | 1014.2 |
| 20260506143722 | 62 | 127 | 0.0 | 2.0 | 0.00 | 0.00 | 0.00 | 96 | 1014.7 |
| 20260506143220 | 62 | 122 | 2.0 | 2.0 | 0.00 | 0.00 | 0.00 | 96 | 1014.5 |
| 20260506142718 | 62 | 109 | 0.0 | 2.0 | 0.00 | 0.00 | 0.00 | 97 | 1014.5 |
| 20260506142216 | 62 | 178 | 0.0 | 2.0 | 0.00 | 0.00 | 0.00 | 96 | 1014.4 |
| 20260506141714 | 63 | 354 | 1.0 | 2.0 | 0.00 | 0.00 | 0.00 | 96 | 1014.3 |
| 20260506141212 | 63 | 100 | 1.0 | 2.0 | 0.00 | 0.00 | 0.00 | 96 | 1013.9 |
| 20260506140709 | 63 | 84 | 2.0 | 2.0 | 0.00 | 0.00 | 0.00 | 96 | 1013.8 |
| 20260506140206 | 63 | 110 | 0.0 | 2.0 | 0.00 | 0.00 | 0.00 | 96 | 1013.7 |
| 20260506135703 | 64 | 107 | 1.0 | 2.0 | 0.00 | 0.00 | 0.00 | 96 | 1013.5 |
| 20260506135159 | 64 | 88 | 0.0 | 2.0 | 0.00 | 0.00 | 0.00 | 95 | 1013.6 |
| 20260506134656 | 64 | 104 | 1.0 | 2.0 | 0.00 | 0.00 | 0.00 | 95 | 1013.6 |
| 20260506134152 | 65 | 63 | 2.0 | 2.0 | 0.00 | 0.00 | 0.00 | 95 | 1013.3 |
| 20260506133649 | 65 | 108 | 0.0 | 2.0 | 0.00 | 0.00 | 0.00 | 95 | 1013.3 |
| 20260506133146 | 65 | 78 | 1.0 | 2.0 | 0.00 | 0.00 | 0.00 | 95 | 1013.2 |
| 20260506132643 | 66 | 102 | 1.0 | 2.0 | 0.00 | 0.00 | 0.00 | 95 | 1013.1 |
| 20260506132140 | 66 | 115 | 0.0 | 1.0 | 0.00 | 0.00 | 0.00 | 95 | 1013.0 |
| 20260506131638 | 66 | 108 | 0.0 | 1.0 | 0.00 | 0.00 | 0.00 | 95 | 1012.9 |
| 20260506131133 | 66 | 81 | 0.0 | 2.0 | 0.00 | 0.00 | 0.00 | 95 | 1012.9 |
| 20260506130630 | 67 | 83 | 2.0 | 2.0 | 0.00 | 0.00 | 0.00 | 94 | 1012.7 |
| 20260506130128 | 68 | 75 | 2.0 | 5.0 | 0.00 | 0.00 | 0.00 | 94 | 1012.5 |
| 20260506125626 | 69 | 97 | 1.0 | 2.0 | 0.00 | 0.00 | 0.00 | 94 | 1012.3 |
| 20260506125123 | 73 | 67 | 1.0 | 6.0 | 0.00 | 0.00 | 0.00 | 94 | 1012.0 |
| 20260506124621 | 74 | 99 | 1.0 | 1.0 | 0.00 | 0.00 | 0.00 | 97 | 1012.1 |
| 20260506124119 | 74 | 120 | 0.0 | 1.0 | 0.00 | 0.00 | 0.00 | 97 | 1012.0 |
| 20260506123616 | 74 | 126 | 0.0 | 0.0 | 0.00 | 0.00 | 0.00 | 97 | 1011.9 |
| 20260506123115 | 73 | 130 | 0.0 | 0.0 | 0.00 | 0.00 | 0.00 | 97 | 1011.9 |
| 20260506122611 | 73 | 124 | 0.0 | 0.0 | 0.00 | 0.00 | 0.00 | 97 | 1011.9 |
| 20260506122109 | 73 | 125 | 0.0 | 1.0 | 0.00 | 0.00 | 0.00 | 97 | 1011.8 |
| 20260506121606 | 73 | 129 | 0.0 | 1.0 | 0.00 | 0.00 | 0.00 | 97 | 1011.7 |
| 20260506121102 | 73 | 124 | 0.0 | 0.0 | 0.00 | 0.00 | 0.00 | 97 | 1011.7 |
| 20260506120601 | 74 | 120 | 0.0 | 1.0 | 0.00 | 0.00 | 0.00 | 97 | 1011.7 |
| 20260506120057 | 74 | 122 | 0.0 | 0.0 | 0.00 | 0.00 | 0.00 | 97 | 1011.5 |
| 20260506115556 | 74 | 124 | 0.0 | 0.0 | 0.00 | 0.00 | 0.00 | 96 | 1011.6 |
| 20260506115054 | 74 | 124 | 0.0 | 0.0 | 0.00 | 0.00 | 0.00 | 96 | 1011.5 |
| 20260506114551 | 74 | 124 | 0.0 | 0.0 | 0.00 | 0.00 | 0.00 | 96 | 1011.6 |
| 20260506114049 | 74 | 122 | 0.0 | 0.0 | 0.00 | 0.00 | 0.00 | 96 | 1011.5 |
| 20260506113547 | 74 | 124 | 0.0 | 2.0 | 0.00 | 0.00 | 0.00 | 96 | 1011.6 |
| 20260506113044 | 74 | 124 | 0.0 | 1.0 | 0.00 | 0.00 | 0.00 | 96 | 1011.5 |
| 20260506112540 | 74 | 133 | 1.0 | 1.0 | 0.00 | 0.00 | 0.00 | 96 | 1011.5 |
| 20260506112038 | 74 | 131 | 0.0 | 0.0 | 0.00 | 0.00 | 0.00 | 96 | 1011.8 |
| 20260506111535 | 74 | 132 | 0.0 | 0.0 | 0.00 | 0.00 | 0.00 | 96 | 1011.4 |
| 20260506111032 | 74 | 132 | 0.0 | 0.0 | 0.00 | 0.00 | 0.00 | 96 | 1011.5 |
| 20260506110530 | 74 | 128 | 0.0 | 0.0 | 0.00 | 0.00 | 0.00 | 96 | 1011.6 |
| 20260506110027 | 74 | 157 | 1.0 | 2.0 | 0.00 | 0.00 | 0.00 | 96 | 1011.6 |
| 20260506105523 | 74 | 130 | 1.0 | 2.0 | 0.00 | 0.00 | 0.00 | 95 | 1011.5 |
| 20260506105021 | 74 | 123 | 1.0 | 2.0 | 0.00 | 0.00 | 0.00 | 95 | 1011.5 |
| 20260506104519 | 74 | 130 | 0.0 | 2.0 | 0.00 | 0.00 | 0.00 | 95 | 1011.6 |
| 20260506104016 | 74 | 142 | 0.0 | 1.0 | 0.00 | 0.00 | 0.00 | 95 | 1011.4 |
| 20260506103513 | 74 | 144 | 1.0 | 2.0 | 0.00 | 0.00 | 0.00 | 95 | 1011.4 |
| 20260506103010 | 74 | 143 | 0.0 | 1.0 | 0.00 | 0.00 | 0.00 | 95 | 1011.2 |
| 20260506102508 | 74 | 142 | 0.0 | 0.0 | 0.00 | 0.00 | 0.00 | 95 | 1011.3 |
| 20260506102005 | 74 | 143 | 0.0 | 1.0 | 0.00 | 0.00 | 0.00 | 95 | 1011.1 |
| 20260506101501 | 74 | 142 | 0.0 | 0.0 | 0.00 | 0.00 | 0.00 | 95 | 1011.3 |
| 20260506100959 | 74 | 141 | 0.0 | 0.0 | 0.00 | 0.00 | 0.00 | 95 | 1010.9 |
| 20260506100457 | 75 | 136 | 0.0 | 0.0 | 0.00 | 0.00 | 0.00 | 95 | 1010.9 |
| 20260506095955 | 75 | 134 | 0.0 | 1.0 | 0.00 | 0.00 | 0.00 | 94 | 1011.1 |
| 20260506095454 | 75 | 122 | 1.0 | 1.0 | 0.00 | 0.00 | 0.00 | 94 | 1011.0 |
| 20260506094949 | 75 | 122 | 0.0 | 1.0 | 0.00 | 0.00 | 0.00 | 94 | 1010.7 |
| 20260506094448 | 75 | 143 | 0.0 | 2.0 | 0.00 | 0.00 | 0.00 | 94 | 1010.6 |
| 20260506093945 | 75 | 149 | 2.0 | 2.0 | 0.00 | 0.00 | 0.00 | 94 | 1010.6 |
| 20260506093443 | 75 | 141 | 2.0 | 2.0 | 0.00 | 0.00 | 0.00 | 94 | 1010.6 |
| 20260506092940 | 75 | 169 | 2.0 | 5.0 | 0.00 | 0.00 | 0.00 | 93 | 1010.5 |
| 20260506092438 | 75 | 178 | 5.0 | 6.0 | 0.00 | 0.00 | 0.00 | 93 | 1010.6 |
| 20260506091934 | 75 | 137 | 1.0 | 6.0 | 0.00 | 0.00 | 0.00 | 93 | 1010.4 |
| 20260506091433 | 75 | 150 | 2.0 | 7.0 | 0.00 | 0.00 | 0.00 | 93 | 1010.6 |
| 20260506090930 | 75 | 164 | 3.0 | 3.0 | 0.00 | 0.00 | 0.00 | 93 | 1010.5 |
| 20260506090427 | 75 | 192 | 3.0 | 3.0 | 0.00 | 0.00 | 0.00 | 93 | 1010.6 |
| 20260506085924 | 75 | 178 | 2.0 | 3.0 | 0.00 | 0.00 | 0.00 | 93 | 1010.4 |
| 20260506085420 | 75 | 149 | 2.0 | 6.0 | 0.00 | 0.00 | 0.00 | 93 | 1010.5 |
| 20260506084917 | 75 | 226 | 1.0 | 3.0 | 0.00 | 0.00 | 0.00 | 93 | 1010.3 |
| 20260506084414 | 75 | 203 | 4.0 | 5.0 | 0.00 | 0.00 | 0.00 | 93 | 1010.4 |
| 20260506083910 | 75 | 169 | 5.0 | 7.0 | 0.00 | 0.00 | 0.00 | 93 | 1010.3 |
| 20260506083407 | 75 | 183 | 2.0 | 3.0 | 0.00 | 0.00 | 0.00 | 93 | 1010.5 |
| 20260506082904 | 75 | 163 | 3.0 | 5.0 | 0.00 | 0.00 | 0.00 | 93 | 1010.6 |
| 20260506082401 | 75 | 163 | 3.0 | 6.0 | 0.00 | 0.00 | 0.00 | 93 | 1010.3 |
| 20260506081857 | 75 | 122 | 1.0 | 3.0 | 0.00 | 0.00 | 0.00 | 93 | 1010.5 |
| 20260506081355 | 75 | 199 | 1.0 | 5.0 | 0.00 | 0.00 | 0.00 | 93 | 1010.6 |
| 20260506080853 | 75 | 165 | 1.0 | 9.0 | 0.00 | 0.00 | 0.00 | 93 | 1010.5 |
| 20260506080349 | 75 | 171 | 2.0 | 6.0 | 0.00 | 0.00 | 0.00 | 93 | 1010.6 |
| 20260506073333 | 75 | 155 | 5.0 | 7.0 | 0.00 | 0.00 | 0.00 | 93 | 1010.8 |
| 20260506072830 | 75 | 119 | 3.0 | 7.0 | 0.00 | 0.00 | 0.00 | 93 | 1010.7 |
| 20260506072328 | 75 | 154 | 3.0 | 7.0 | 0.00 | 0.00 | 0.00 | 93 | 1010.9 |
| 20260506071825 | 75 | 135 | 2.0 | 5.0 | 0.00 | 0.00 | 0.00 | 93 | 1011.0 |
| 20260506071323 | 75 | 191 | 3.0 | 5.0 | 0.00 | 0.00 | 0.00 | 93 | 1011.0 |
| 20260506070820 | 75 | 175 | 3.0 | 7.0 | 0.00 | 0.00 | 0.00 | 93 | 1011.0 |
| 20260506070317 | 75 | 163 | 1.0 | 3.0 | 0.00 | 0.00 | 0.00 | 93 | 1011.1 |
| 20260506062254 | 75 | 218 | 5.0 | 11.0 | 0.00 | 0.00 | 0.00 | 94 | 1010.1 |
| 20260506061750 | 75 | 208 | 6.0 | 9.0 | 0.00 | 0.00 | 0.00 | 94 | 1010.3 |
| 20260506061247 | 75 | 204 | 6.0 | 9.0 | 0.00 | 0.00 | 0.00 | 94 | 1010.1 |
| 20260506060745 | 75 | 172 | 5.0 | 7.0 | 0.00 | 0.00 | 0.00 | 94 | 1010.3 |
| 20260506060243 | 75 | 131 | 1.0 | 10.0 | 0.00 | 0.00 | 0.00 | 94 | 1010.4 |
| 20260506051209 | 74 | 190 | 3.0 | 9.0 | 0.00 | 0.00 | 0.00 | 96 | 1010.1 |
| 20260506050707 | 74 | 221 | 4.0 | 7.0 | 0.00 | 0.00 | 0.00 | 95 | 1010.4 |
| 20260506050204 | 74 | 187 | 3.0 | 5.0 | 0.00 | 0.00 | 0.00 | 95 | 1010.3 |
| 20260506044655 | 74 | 197 | 2.0 | 3.0 | 0.00 | 0.00 | 0.00 | 94 | 1010.1 |
| 20260506044151 | 74 | 200 | 4.0 | 7.0 | 0.00 | 0.00 | 0.00 | 94 | 1010.1 |
| 20260506043649 | 75 | 119 | 5.0 | 8.0 | 0.00 | 0.00 | 0.00 | 94 | 1010.4 |
| 20260506043147 | 75 | 187 | 4.0 | 9.0 | 0.00 | 0.00 | 0.00 | 94 | 1010.4 |
| 20260506042646 | 75 | 151 | 4.0 | 8.0 | 0.00 | 0.00 | 0.00 | 93 | 1010.0 |
| 20260506042143 | 75 | 188 | 7.0 | 9.0 | 0.00 | 0.00 | 0.00 | 93 | 1010.3 |
| 20260506041642 | 75 | 187 | 4.0 | 10.0 | 0.00 | 0.00 | 0.00 | 93 | 1010.3 |
| 20260506041138 | 75 | 200 | 4.0 | 8.0 | 0.00 | 0.00 | 0.00 | 93 | 1010.1 |
| 20260506040635 | 75 | 141 | 5.0 | 8.0 | 0.00 | 0.00 | 0.00 | 93 | 1010.0 |
| 20260506040132 | 75 | 180 | 3.0 | 7.0 | 0.00 | 0.00 | 0.00 | 93 | 1009.9 |
| 20260506035629 | 75 | 124 | 3.0 | 7.0 | 0.00 | 0.00 | 0.00 | 93 | 1010.1 |
| 20260506035126 | 75 | 166 | 5.0 | 7.0 | 0.00 | 0.00 | 0.00 | 93 | 1009.8 |
| 20260506034623 | 75 | 166 | 3.0 | 8.0 | 0.00 | 0.00 | 0.00 | 93 | 1009.8 |
| 20260506034120 | 75 | 140 | 3.0 | 7.0 | 0.00 | 0.00 | 0.00 | 93 | 1009.8 |
| 20260506033617 | 75 | 174 | 3.0 | 6.0 | 0.00 | 0.00 | 0.00 | 93 | 1009.7 |
| 20260506033114 | 75 | 149 | 2.0 | 5.0 | 0.00 | 0.00 | 0.00 | 93 | 1010.0 |
| 20260506032612 | 75 | 158 | 4.0 | 6.0 | 0.00 | 0.00 | 0.00 | 93 | 1009.7 |
| 20260506032108 | 75 | 121 | 2.0 | 6.0 | 0.00 | 0.00 | 0.00 | 92 | 1009.6 |
| 20260506031605 | 75 | 142 | 3.0 | 6.0 | 0.00 | 0.00 | 0.00 | 93 | 1009.6 |
| 20260506031102 | 75 | 158 | 3.0 | 6.0 | 0.00 | 0.00 | 0.00 | 93 | 1009.5 |
| 20260506030601 | 75 | 166 | 2.0 | 5.0 | 0.00 | 0.00 | 0.00 | 93 | 1009.5 |
| 20260506030057 | 75 | 129 | 2.0 | 5.0 | 0.00 | 0.00 | 0.00 | 93 | 1009.4 |
| 20260506025554 | 75 | 121 | 1.0 | 5.0 | 0.00 | 0.00 | 0.00 | 93 | 1009.4 |
| 20260506025050 | 75 | 149 | 2.0 | 2.0 | 0.00 | 0.00 | 0.00 | 93 | 1009.3 |
| 20260506024548 | 75 | 138 | 1.0 | 3.0 | 0.00 | 0.00 | 0.00 | 92 | 1008.9 |
| 20260506024044 | 75 | 130 | 2.0 | 5.0 | 0.00 | 0.00 | 0.00 | 92 | 1009.1 |
| 20260506023540 | 75 | 160 | 1.0 | 5.0 | 0.00 | 0.00 | 0.00 | 92 | 1008.8 |
| 20260506023038 | 75 | 103 | 0.0 | 2.0 | 0.00 | 0.00 | 0.00 | 92 | 1008.8 |
| 20260506022535 | 75 | 141 | 2.0 | 2.0 | 0.00 | 0.00 | 0.00 | 92 | 1008.9 |
| 20260506022032 | 75 | 127 | 0.0 | 1.0 | 0.00 | 0.00 | 0.00 | 92 | 1008.8 |
| 20260506021530 | 75 | 138 | 1.0 | 3.0 | 0.00 | 0.00 | 0.00 | 91 | 1008.5 |
| 20260506021027 | 76 | 121 | 1.0 | 3.0 | 0.00 | 0.00 | 0.00 | 91 | 1008.4 |
| 20260506020525 | 76 | 165 | 3.0 | 5.0 | 0.00 | 0.00 | 0.00 | 91 | 1008.5 |
| 20260506020022 | 76 | 160 | 2.0 | 2.0 | 0.00 | 0.00 | 0.00 | 91 | 1008.3 |
| 20260506015519 | 76 | 159 | 2.0 | 7.0 | 0.00 | 0.00 | 0.00 | 90 | 1008.3 |
| 20260506015016 | 76 | 131 | 1.0 | 5.0 | 0.00 | 0.00 | 0.00 | 90 | 1008.2 |
| 20260506014514 | 76 | 125 | 2.0 | 3.0 | 0.00 | 0.00 | 0.00 | 90 | 1008.2 |
| 20260506014009 | 76 | 138 | 0.0 | 2.0 | 0.00 | 0.00 | 0.00 | 89 | 1008.3 |
| 20260506013507 | 77 | 124 | 1.0 | 2.0 | 0.00 | 0.00 | 0.00 | 89 | 1008.3 |
| 20260506013004 | 77 | 182 | 2.0 | 3.0 | 0.00 | 0.00 | 0.00 | 88 | 1008.1 |
| 20260506012500 | 77 | 176 | 3.0 | 3.0 | 0.00 | 0.00 | 0.00 | 88 | 1008.0 |
| 20260506011957 | 78 | 124 | 1.0 | 3.0 | 0.00 | 0.00 | 0.00 | 87 | 1008.2 |
| 20260506011454 | 78 | 175 | 2.0 | 3.0 | 0.00 | 0.00 | 0.00 | 86 | 1008.0 |
| 20260506010950 | 78 | 172 | 1.0 | 3.0 | 0.00 | 0.00 | 0.00 | 86 | 1008.0 |
| 20260506010450 | 79 | 207 | 2.0 | 5.0 | 0.00 | 0.00 | 0.00 | 85 | 1008.0 |
| 20260506005945 | 79 | 124 | 1.0 | 3.0 | 0.00 | 0.00 | 0.00 | 84 | 1007.9 |
| 20260506005443 | 79 | 177 | 2.0 | 5.0 | 0.00 | 0.00 | 0.00 | 84 | 1007.9 |
| 20260506004938 | 80 | 154 | 2.0 | 5.0 | 0.00 | 0.00 | 0.00 | 83 | 1007.9 |
| 20260506004437 | 80 | 106 | 1.0 | 10.0 | 0.00 | 0.00 | 0.00 | 83 | 1008.0 |
| 20260506003932 | 80 | 138 | 1.0 | 7.0 | 0.00 | 0.00 | 0.00 | 82 | 1008.2 |
| 20260506003429 | 81 | 125 | 2.0 | 5.0 | 0.00 | 0.00 | 0.00 | 81 | 1008.0 |
| 20260506002926 | 81 | 143 | 3.0 | 5.0 | 0.00 | 0.00 | 0.00 | 81 | 1008.0 |
| 20260506002422 | 81 | 185 | 4.0 | 8.0 | 0.00 | 0.00 | 0.00 | 80 | 1007.9 |
| 20260506001917 | 81 | 184 | 5.0 | 7.0 | 0.00 | 0.00 | 0.00 | 80 | 1008.0 |
| 20260506001415 | 81 | 150 | 1.0 | 7.0 | 0.00 | 0.00 | 0.00 | 80 | 1008.2 |
| 20260506000912 | 81 | 216 | 0.0 | 6.0 | 0.00 | 0.00 | 0.00 | 80 | 1008.0 |
| 20260506000409 | 81 | 177 | 2.0 | 8.0 | 0.00 | 0.00 | 0.00 | 80 | 1008.1 |
| 20260505235906 | 81 | 201 | 2.0 | 6.0 | 0.00 | 0.00 | 0.00 | 80 | 1008.1 |
| 20260505235404 | 81 | 170 | 3.0 | 5.0 | 0.00 | 0.00 | 0.00 | 79 | 1008.1 |
| 20260505234900 | 81 | 110 | 3.0 | 7.0 | 0.00 | 0.00 | 0.00 | 79 | 1008.1 |
| 20260505234358 | 81 | 179 | 2.0 | 9.0 | 0.00 | 0.00 | 0.00 | 79 | 1008.1 |
| 20260505233854 | 82 | 164 | 6.0 | 8.0 | 0.00 | 0.00 | 0.00 | 79 | 1008.2 |
| 20260505233353 | 82 | 191 | 7.0 | 8.0 | 0.00 | 0.00 | 0.00 | 77 | 1008.0 |
| 20260505232850 | 82 | 170 | 3.0 | 6.0 | 0.00 | 0.00 | 0.00 | 78 | 1008.0 |
| 20260505232348 | 82 | 196 | 2.0 | 5.0 | 0.00 | 0.00 | 0.00 | 78 | 1008.1 |
| 20260505231844 | 81 | 118 | 3.0 | 9.0 | 0.00 | 0.00 | 0.00 | 78 | 1007.8 |
| 20260505231341 | 82 | 266 | 4.0 | 7.0 | 0.00 | 0.00 | 0.00 | 78 | 1007.7 |
| 20260505230840 | 82 | 198 | 3.0 | 10.0 | 0.00 | 0.00 | 0.00 | 78 | 1007.9 |
| 20260505230336 | 82 | 198 | 3.0 | 8.0 | 0.00 | 0.00 | 0.00 | 77 | 1007.9 |
| 20260505225833 | 82 | 186 | 5.0 | 8.0 | 0.00 | 0.00 | 0.00 | 77 | 1007.9 |
| 20260505225330 | 82 | 125 | 6.0 | 8.0 | 0.00 | 0.00 | 0.00 | 76 | 1007.8 |
| 20260505224825 | 83 | 199 | 4.0 | 8.0 | 0.00 | 0.00 | 0.00 | 75 | 1007.7 |
| 20260505224324 | 82 | 187 | 7.0 | 10.0 | 0.00 | 0.00 | 0.00 | 75 | 1007.7 |
| 20260505223820 | 82 | 130 | 4.0 | 8.0 | 0.00 | 0.00 | 0.00 | 75 | 1007.6 |
| 20260505223317 | 82 | 190 | 4.0 | 9.0 | 0.00 | 0.00 | 0.00 | 75 | 1007.6 |
| 20260505222813 | 82 | 227 | 8.0 | 10.0 | 0.00 | 0.00 | 0.00 | 75 | 1007.8 |
| 20260505222309 | 82 | 142 | 2.0 | 8.0 | 0.00 | 0.00 | 0.00 | 76 | 1007.7 |
| 20260505221807 | 82 | 137 | 2.0 | 13.0 | 0.00 | 0.00 | 0.00 | 77 | 1007.7 |
| 20260505221303 | 82 | 198 | 4.0 | 13.0 | 0.00 | 0.00 | 0.00 | 76 | 1007.6 |
| 20260505220800 | 83 | 196 | 5.0 | 9.0 | 0.00 | 0.00 | 0.00 | 74 | 1007.5 |
| 20260505220257 | 82 | 147 | 5.0 | 8.0 | 0.00 | 0.00 | 0.00 | 75 | 1007.9 |
| 20260505215755 | 83 | 146 | 2.0 | 14.0 | 0.00 | 0.00 | 0.00 | 75 | 1007.5 |
| 20260505215253 | 83 | 187 | 7.0 | 10.0 | 0.00 | 0.00 | 0.00 | 74 | 1007.8 |
| 20260505214750 | 83 | 199 | 8.0 | 10.0 | 0.00 | 0.00 | 0.00 | 74 | 1007.8 |
| 20260505214248 | 83 | 183 | 9.0 | 10.0 | 0.00 | 0.00 | 0.00 | 74 | 1007.8 |
| 20260505213745 | 82 | 183 | 3.0 | 7.0 | 0.00 | 0.00 | 0.00 | 76 | 1007.8 |
| 20260505213242 | 82 | 187 | 6.0 | 13.0 | 0.00 | 0.00 | 0.00 | 75 | 1007.8 |
| 20260505212738 | 83 | 193 | 6.0 | 10.0 | 0.00 | 0.00 | 0.00 | 74 | 1008.0 |
| 20260505212236 | 82 | 191 | 9.0 | 11.0 | 0.00 | 0.00 | 0.00 | 73 | 1008.3 |
| 20260505211732 | 83 | 179 | 5.0 | 13.0 | 0.00 | 0.00 | 0.00 | 75 | 1008.2 |
| 20260505211230 | 82 | 142 | 5.0 | 9.0 | 0.00 | 0.00 | 0.00 | 76 | 1008.3 |
| 20260505210726 | 82 | 106 | 4.0 | 8.0 | 0.00 | 0.00 | 0.00 | 75 | 1008.2 |
| 20260505210223 | 83 | 126 | 5.0 | 8.0 | 0.00 | 0.00 | 0.00 | 75 | 1008.4 |
| 20260505205720 | 83 | 200 | 9.0 | 11.0 | 0.00 | 0.00 | 0.00 | 74 | 1008.4 |
| 20260505205218 | 84 | 202 | 2.0 | 7.0 | 0.00 | 0.00 | 0.00 | 75 | 1008.4 |
| 20260505204715 | 83 | 135 | 4.0 | 8.0 | 0.00 | 0.00 | 0.00 | 75 | 1008.6 |
| 20260505204213 | 83 | 191 | 6.0 | 8.0 | 0.00 | 0.00 | 0.00 | 74 | 1008.4 |
| 20260505203710 | 82 | 217 | 6.0 | 7.0 | 0.00 | 0.00 | 0.00 | 73 | 1008.5 |
| 20260505203206 | 83 | 159 | 3.0 | 7.0 | 0.00 | 0.00 | 0.00 | 74 | 1008.7 |
| 20260505202702 | 83 | 167 | 4.0 | 11.0 | 0.00 | 0.00 | 0.00 | 73 | 1008.7 |
| 20260505202158 | 83 | 207 | 6.0 | 13.0 | 0.00 | 0.00 | 0.00 | 74 | 1008.9 |
| 20260505201655 | 83 | 155 | 4.0 | 8.0 | 0.00 | 0.00 | 0.00 | 75 | 1008.9 |
| 20260505201153 | 84 | 139 | 7.0 | 10.0 | 0.00 | 0.00 | 0.00 | 73 | 1009.0 |
| 20260505200651 | 82 | 214 | 5.0 | 7.0 | 0.00 | 0.00 | 0.00 | 75 | 1009.0 |
| 20260505200147 | 82 | 231 | 5.0 | 8.0 | 0.00 | 0.00 | 0.00 | 73 | 1009.2 |
| 20260505195643 | 83 | 143 | 3.0 | 6.0 | 0.00 | 0.00 | 0.00 | 72 | 1008.9 |
| 20260505195141 | 82 | 166 | 3.0 | 7.0 | 0.00 | 0.00 | 0.00 | 75 | 1009.0 |
| 20260505194638 | 83 | 191 | 5.0 | 8.0 | 0.00 | 0.00 | 0.00 | 72 | 1009.2 |
| 20260505194134 | 82 | 154 | 2.0 | 8.0 | 0.00 | 0.00 | 0.00 | 74 | 1009.2 |
| 20260505193630 | 82 | 206 | 4.0 | 8.0 | 0.00 | 0.00 | 0.00 | 75 | 1009.2 |
| 20260505193127 | 82 | 199 | 6.0 | 8.0 | 0.00 | 0.00 | 0.00 | 73 | 1009.2 |
| 20260505192626 | 82 | 178 | 5.0 | 10.0 | 0.00 | 0.00 | 0.00 | 74 | 1009.2 |
| 20260505192123 | 82 | 182 | 3.0 | 10.0 | 0.00 | 0.00 | 0.00 | 77 | 1009.4 |
| 20260505191622 | 81 | 155 | 4.0 | 6.0 | 0.00 | 0.00 | 0.00 | 74 | 1009.6 |
| 20260505191119 | 82 | 238 | 3.0 | 8.0 | 0.00 | 0.00 | 0.00 | 75 | 1009.4 |
| 20260505190615 | 81 | 239 | 4.0 | 6.0 | 0.00 | 0.00 | 0.00 | 76 | 1009.4 |
| 20260505190110 | 81 | 189 | 2.0 | 3.0 | 0.00 | 0.00 | 0.00 | 76 | 1009.6 |
| 20260505185607 | 80 | 195 | 5.0 | 7.0 | 0.00 | 0.00 | 0.00 | 75 | 1009.5 |
| 20260505185103 | 81 | 150 | 7.0 | 10.0 | 0.00 | 0.00 | 0.00 | 74 | 1009.7 |
| 20260505184600 | 81 | 199 | 6.0 | 9.0 | 0.00 | 0.00 | 0.00 | 73 | 1009.7 |
| 20260505184057 | 81 | 198 | 6.0 | 10.0 | 0.00 | 0.00 | 0.00 | 76 | 1009.7 |
| 20260505183553 | 80 | 161 | 3.0 | 11.0 | 0.00 | 0.00 | 0.00 | 77 | 1009.8 |
| 20260505183051 | 79 | 204 | 5.0 | 9.0 | 0.00 | 0.00 | 0.00 | 79 | 1010.0 |
| 20260505182547 | 79 | 185 | 4.0 | 7.0 | 0.00 | 0.00 | 0.00 | 78 | 1010.1 |
| 20260505182044 | 78 | 165 | 2.0 | 3.0 | 0.00 | 0.00 | 0.00 | 79 | 1010.1 |
| 20260505181541 | 78 | 205 | 10.0 | 13.0 | 0.00 | 0.00 | 0.00 | 78 | 1010.5 |
| 20260505181038 | 79 | 169 | 6.0 | 10.0 | 0.00 | 0.00 | 0.00 | 79 | 1010.1 |
| 20260505180534 | 78 | 108 | 4.0 | 6.0 | 0.00 | 0.00 | 0.00 | 79 | 1010.3 |
| 20260505180032 | 78 | 136 | 4.0 | 8.0 | 0.00 | 0.00 | 0.00 | 80 | 1010.5 |
| 20260505175532 | 78 | 192 | 6.0 | 13.0 | 0.00 | 0.00 | 0.00 | 80 | 1010.4 |
| 20260505175029 | 78 | 197 | 6.0 | 9.0 | 0.00 | 0.00 | 0.00 | 80 | 1010.7 |
| 20260505174526 | 77 | 217 | 6.0 | 7.0 | 0.00 | 0.00 | 0.00 | 79 | 1010.5 |
| 20260505174022 | 77 | 170 | 4.0 | 7.0 | 0.00 | 0.00 | 0.00 | 80 | 1010.7 |
| 20260505173519 | 77 | 210 | 3.0 | 9.0 | 0.00 | 0.00 | 0.00 | 82 | 1010.7 |
| 20260505173016 | 76 | 183 | 6.0 | 10.0 | 0.00 | 0.00 | 0.00 | 82 | 1010.8 |
| 20260505172514 | 76 | 205 | 4.0 | 7.0 | 0.00 | 0.00 | 0.00 | 83 | 1010.6 |
| 20260505172009 | 76 | 114 | 1.0 | 6.0 | 0.00 | 0.00 | 0.00 | 84 | 1010.6 |
| 20260505171505 | 76 | 249 | 4.0 | 7.0 | 0.00 | 0.00 | 0.00 | 84 | 1010.6 |
| 20260505171002 | 75 | 214 | 6.0 | 7.0 | 0.00 | 0.00 | 0.00 | 84 | 1010.7 |
| 20260505170459 | 76 | 191 | 7.0 | 9.0 | 0.00 | 0.00 | 0.00 | 84 | 1010.7 |
| 20260505165954 | 76 | 149 | 5.0 | 8.0 | 0.00 | 0.00 | 0.00 | 84 | 1010.8 |
| 20260505165450 | 75 | 154 | 2.0 | 6.0 | 0.00 | 0.00 | 0.00 | 86 | 1010.7 |
| 20260505164946 | 75 | 145 | 3.0 | 9.0 | 0.00 | 0.00 | 0.00 | 85 | 1010.6 |
| 20260505164442 | 75 | 136 | 1.0 | 6.0 | 0.00 | 0.00 | 0.00 | 87 | 1010.8 |
| 20260505163940 | 74 | 218 | 5.0 | 8.0 | 0.00 | 0.00 | 0.00 | 86 | 1010.8 |
| 20260505163439 | 74 | 136 | 2.0 | 5.0 | 0.00 | 0.00 | 0.00 | 87 | 1010.9 |
| 20260505162938 | 74 | 182 | 3.0 | 7.0 | 0.00 | 0.00 | 0.00 | 87 | 1010.8 |
| 20260505162433 | 74 | 189 | 4.0 | 8.0 | 0.00 | 0.00 | 0.00 | 86 | 1011.1 |
| 20260505161930 | 74 | 234 | 6.0 | 9.0 | 0.00 | 0.00 | 0.00 | 87 | 1011.0 |
| 20260505161426 | 74 | 165 | 4.0 | 8.0 | 0.00 | 0.00 | 0.00 | 87 | 1011.0 |
| 20260505160924 | 74 | 270 | 3.0 | 11.0 | 0.00 | 0.00 | 0.00 | 87 | 1010.9 |
| 20260505160422 | 73 | 167 | 3.0 | 7.0 | 0.00 | 0.00 | 0.00 | 88 | 1010.9 |